User: anonymous   Login
Location: Julian California
(33.0790°N, 116.6010°W)
Time: 17:41:47
(UTC-07:00)
Language:

Terra - Orbit

View from above orbital plane
View from above orbital plane
View from above satellite
View from above satellite

Ground track
Ground track

The orbit data is extracted from the following two-line orbital elements,

1 25994U 99068A   18143.18855507 -.00000054  00000-0 -20297-5 0  9993
2 25994  98.2060 218.4192 0001281  98.0345 262.1025 14.57102218980189
Epoch (UTC): 23 May 2018 04:31:31
Eccentricity: 0.0001281
inclination: 98.2060°
perigee height: 701 km
apogee height: 703 km
right ascension of ascending node: 218.4192°
argument of perigee: 98.0345°
revolutions per day: 14.57102218
mean anomaly at epoch: 262.1025°
orbit number at epoch: 98018

The dashed part of the orbit path shows where the satellite is in the earth's shadow,  

DLR